Regional Weather Roundup
Issued by NWS Newport/Morehead, NC

Current Version | Previous Version | Graphics & Text | Print | Product List | Glossary Off
Versions: 1 2 3 4 5 6 7 8 9 10 11 12 13 14 15 16 17 18 19 20 21 22 23 24 25 26 27 28 29 30 31 32 33 34 35 36 37 38 39 40 41 42 43 44 45 46 47 48 49 50

000
ASUS42 KMHX 050225
RWRMHX
WEATHER ROUNDUP FOR EASTERN NORTH CAROLINA
NATIONAL WEATHER SERVICE NEWPORT/MOREHEAD CITY NC
1000 PM EDT SAT JUL 04 2015

NOTE: "FAIR" INDICATES FEW OR NO CLOUDS BELOW 12,000 FEET
WITH NO SIGNIFICANT WEATHER AND/OR OBSTRUCTIONS TO VISIBILITY

NCZ015>017-031-032-045>047-102-103-050300-
NORTH COAST

CITY           SKY/WX    TMP DP  RH WIND       PRES   REMARKS
EDENTON          N/A     79  74  83 SW5       30.02R
ELIZABETH CITY CLEAR     75  72  90 S6        30.00R
KITTY HAWK     PTCLDY    76  71  84 CALM      30.00R
MANTEO         PTCLDY    78  72  84 W6        30.02R

$$

NCZ045>047-081-094-103-104-050300-
CENTRAL COAST

CITY           SKY/WX    TMP DP  RH WIND       PRES   REMARKS
FRISCO         CLOUDY    79  73  82 SW15G24   30.04R
SWANQUARTER      N/A     82 N/A N/A SW12G20   30.00R

$$

NCZ095-097-098-100-101-050300-
SOUTHERN COAST

CITY           SKY/WX    TMP DP  RH WIND       PRES   REMARKS
BEAUFORT       MOCLDY    80  77  90 SW18G24   30.05R
CEDAR ISLAND     N/A     81 N/A N/A S15       30.09R
JACKSONVILLE   CLOUDY    81  71  71 SW7       30.04R
PINEY ISLAND   MOCLDY   N/A N/A N/A SW15G22   30.04R
WILMINGTON     MOCLDY    80  74  81 SW12      30.06R


$$

NCZ011>013-027>030-043-044-078>080-089-090>093-098-050300-
COASTAL PLAIN

CITY           SKY/WX    TMP DP  RH WIND       PRES   REMARKS
AHOSKIE        PTCLDY   N/A N/A N/A CALM      30.01R
CLINTON        PTCLDY    77  71  81 CALM      30.04R
ELIZABETHTOWN  CLEAR     80  71  73 S3        30.04S
GOLDSBORO      MOCLDY    82  70  67 SW7       30.01R
GREENVILLE     CLOUDY    81  70  69 SW7       30.03R
HAVELOCK       CLOUDY    81  74  79 SW13      30.05R
KENANSVILLE    CLOUDY    78  68  70 CALM      30.05R
KINSTON        MOCLDY    82  68  61 SW8       30.04R
NEW BERN       CLOUDY    81  72  74 SW7       30.05R
RICHLANDS      CLOUDY    81  68  65 SW8       30.05R
ROCKY MOUNT    PTCLDY    74  73  97 SW3       30.02R
WASHINGTON     CLOUDY    81  69  66 SW8       30.03R
WHITEVILLE     PTCLDY    80  74  83 S5        30.05S

$$

AMZ130-135-150-152-154-156-158-170-250-252-270-ANZ085-086-088-633-658-670-050300-
MARINE OBSERVATIONS

STATION/POSITION TIME  TEMP    WIND        PRES    WAVE   SWELL
                       AIR SEA DIR/SP/G            HT/PER HT/PER
                 (UTC) (F)     (DEG/KT/KT) (MB)    (FT/S) (FT/S)
CHESAPEAKE LIGHT 0200   79     230/ 19/ 21 1014.9
64 E VA BEACH    0150   78 77  210/ 14/ 17 1014.6    5/ 7   3/ 7
DUCK             0200   80 72  220/  9/ 11   N/A
2 E DUCK         0211      77                N/A     2/ 7
OREGON INLET     0200   80 82  240/  6/  9 1016.4
13E OREGON INLT  0200      71                N/A     4/ 6   2/14
HATTERAS CG      0200   79 80  220/ 10/ 15 1016.9
DIAMOND BUOY     0150   82 81  220/ 21/ 25 1016.7    6/ 6   2/ 9
CAPE LOOKOUT     0200   80     220/ 14/ 18 1017.6
BEAUFORT LAB     0200   81 80  220/  8/ 15 1017.1
30 SE NEW RVR IN NOT AVBL
27 SE WRIGHTSVLE 0200      80  230/ 17/ 23   N/A
5 SE WRIGHTSVLE  0108   80 78  220/ 16/ 21 1017.4
225 S CAPE HAT   0150   82 80  210/  8/ 10 1021.6    5/ 6   5/ 6
41 SE CHARLESTON 0150   79 83  260/ 12/ 14 1018.8    3/ 9   2/ 9

$$



USA.gov is the U.S. government's official web portal to all federal, state and local government web resources and services.